Weather observations for the past three days for
Truckee-Tahoe
Imperial (Metric)
Date Time (pdt) Wind (mph) Vis. (mi.) Weather Sky Cond. Temperature (ºF) Relative Humidity Wind Chill (°F) Heat Index (°F) Pressure Precipitation (in)
Air Dwpt 6 hour altimeter (in) sea level (mb) 1 hr 3 hr 6 hr
Max. Min.
15 22:35 Calm 10.00 Mostly Cloudy BKN120 57.2 51.8 82% 30.31 0.0
15 22:15 Calm 10.00 Mostly Cloudy BKN120 59 51.8 77% 30.31 0.0
15 21:55 Calm 10.00 Overcast OVC120 59 51.8 77% 30.31 0.0
15 21:35 Calm 10.00 Overcast OVC120 60.8 51.8 72% 30.31 0.0
15 21:15 Calm 10.00 Overcast OVC120 59 51.8 77% 30.31 0.0
15 20:55 Calm 10.00 Mostly Cloudy BKN120 62.6 51.8 68% 30.29 0.0
15 20:35 Calm 10.00 Mostly Cloudy BKN120 62.6 51.8 68% 30.29 0.0
15 20:15 Calm 10.00 Partly Cloudy SCT120 62.6 51.8 68% 30.29 0.0
15 19:48 Calm 10.00 Partly Cloudy SCT150 68 51.8 56% 30.29 0.0
15 18:48 Vrbl 6 10.00 Partly Cloudy SCT150 71.6 46.4 41% 30.31 0.0
15 17:48 W 8 10.00 Mostly Cloudy BKN120 73.4 46.4 38% 30.32 0.0
15 16:48 N 9 10.00 Mostly Cloudy BKN110 73.4 48.2 41% 30.33 0.0
15 15:48 W 17 G 25 10.00 Light Rain BKN090 66.2 48.2 52% 30.34 0.0
15 14:48 S 18 10.00 Thunderstorm Rain BKN110 64.4 50 60% 30.33 0.0
15 13:47 Calm 10.00 Partly Cloudy SCT130 82.4 35.6 19% 80 30.3 0.0
15 12:47 Calm 10.00 Partly Cloudy SCT110 82.4 35.6 19% 80 30.32 0.0
15 11:47 Calm 10.00 Partly Cloudy SCT 80.6 35.6 20% 79 30.33 0.0
15 10:48 Calm 10.00 A Few Clouds FEW050 78.8 48.2 34% 79 30.35 0.0
15 09:47 Calm 10.00 A Few Clouds FEW050 66.2 48.2 52% 30.37 0.0
15 08:47 Calm 10.00 Fair CLR 60.8 46.4 59% 30.38 0.0
15 07:47 Calm 10.00 Fair CLR 51.8 46.4 82% 30.38 0.0
15 06:47 Calm 10.00 Fair CLR 46.4 44.6 93% 30.37 0.0
15 06:35 Calm 1.50 Fog/Mist SCT001 42.8 42.8 100% 30.37 0.0
15 06:15 Calm 0.25 Fog OVC001 42.8 42.8 100% 30.37 0.0
15 05:55 Calm 0.15 Fog OVC001 41 41 100% 30.37 0.0
15 05:35 Calm 10.00 Fair CLR 42.8 41 93% 30.36 0.0
15 05:15 Calm 10.00 Fair CLR 42.8 42.8 100% 30.36 0.0
15 04:55 Calm 10.00 Fair CLR 44.6 44.6 100% 30.36 0.0
15 04:35 Calm 1.00 Fog/Mist BKN001 42.8 42.8 100% 30.35 0.0
15 04:15 Calm 0.25 Fog OVC001 42.8 42.8 100% 30.35 0.0
15 03:55 Calm 0.25 Fog OVC001 44.6 44.6 100% 30.35 0.0
15 03:35 Calm 10.00 Partly Cloudy SCT002 46.4 44.6 93% 30.35 0.0
15 03:15 Calm 0.50 Fog BKN002 42.8 42.8 100% 30.35 0.0
15 02:55 Calm 2.00 Fog/Mist CLR 44.6 42.8 93% 30.35 0.0
15 02:35 Calm 10.00 Fair CLR 46.4 46.4 100% 30.35 0.0
15 02:15 Calm 10.00 Fair CLR 44.6 42.8 93% 30.36 0.0
15 01:55 Calm 10.00 Fair CLR 46.4 44.6 93% 30.36 0.0
15 01:35 Calm 10.00 Fair CLR 50 44.6 82% 30.37 0.0
15 01:15 Calm 10.00 Fair CLR 50 48.2 94% 30.37 0.0
15 00:55 Calm 10.00 Fair CLR 50 46.4 88% 30.37 0.0
15 00:35 Calm 10.00 Fair CLR 51.8 46.4 82% 30.37 0.0
15 00:15 Calm 10.00 Fair CLR 48.2 46.4 94% 30.37 0.0
14 23:55 S 3 10.00 Fair CLR 51.8 44.6 77% 30.37 0.0
14 23:35 Calm 10.00 Fair CLR 51.8 50 94% 30.37 0.0
14 23:15 Calm 10.00 Fair CLR 53.6 50 88% 30.37 0.0
14 22:55 Calm 10.00 Fair CLR 53.6 48.2 82% 30.37 0.0
14 22:35 S 3 10.00 Fair CLR 57.2 44.6 63% 30.37 0.0
14 22:15 E 3 10.00 Fair CLR 55.4 46.4 72% 30.37 0.0
14 21:55 Calm 10.00 Fair CLR 59 48.2 68% 30.37 0.0
14 21:35 SE 3 10.00 Fair CLR 57.2 46.4 67% 30.36 0.0
14 21:15 SE 6 10.00 Fair CLR 59 48.2 68% 30.35 0.0
14 20:55 S 5 10.00 Fair CLR 60.8 48.2 63% 30.34 0.0
14 20:35 Calm 10.00 Fair CLR 62.6 50 64% 30.34 0.0
14 20:15 Calm 10.00 Fair CLR 68 48.2 49% 30.33 0.0
14 19:57 N 5 10.00 Mostly Cloudy BKN160 71.6 46.4 41% 30.33 0.0
14 19:50 N 5 10.00 Mostly Cloudy BKN016 71.6 46.4 41% 30.33 0.0
14 18:48 NE 3 10.00 Mostly Cloudy BKN016 75.2 46.4 36% 77 30.33 0.0
14 17:50 E 3 10.00 Mostly Cloudy FEW085 BKN160 73.4 46.4 38% 30.34 0.0
14 16:47 SE 9 10.00 Mostly Cloudy SCT085 BKN160 73.4 48.2 41% 30.35 0.0
14 15:48 Calm 10.00 Overcast SCT085 OVC120 75.2 50 41% 78 30.37 0.0
14 14:48 Calm 10.00 Overcast SCT085 OVC110 75.2 44.6 34% 77 30.37 0.0
14 13:48 Calm 10.00 Overcast SCT085 BKN100 OVC120 75.2 48.2 39% 77 30.38 0.0
14 12:50 Calm 10.00 Overcast BKN090 OVC110 71.6 53.6 53% 30.38 0.0
14 11:48 Calm 10.00 Overcast BKN090 OVC110 68 57.2 69% 30.39 0.0
14 10:49 Calm 10.00 Overcast BKN090 OVC110 64.4 57.2 78% 30.39 0.0
14 09:48 Calm 10.00 Partly Cloudy SCT090 SCT110 62.6 55.4 77% 30.39 0.0
14 08:48 Calm 10.00 Light Showers Rain SCT046 SCT065 BKN075 60.8 53.6 77% 30.38 0.0
14 07:49 Calm 10.00 Light Showers Rain SCT075 BKN095 57.2 53.6 88% 30.37 0.0
14 07:48 Calm 10.00 Mostly Cloudy SCT075 BKN095 57.2 53.6 88% 30.37 0.0
14 06:50 Vrbl 3 10.00 Mostly Cloudy SCT085 BKN100 55.4 50 82% 30.34 0.0
14 06:35 Calm 10.00 Overcast OVC100 55.4 44.6 67% 30.33 0.0
14 06:15 Calm 10.00 Mostly Cloudy BKN100 53.6 44.6 72% 30.33 0.0
14 05:55 Calm 10.00 Mostly Cloudy BKN110 55.4 44.6 67% 30.32 0.0
14 05:35 Calm 10.00 Mostly Cloudy BKN110 55.4 46.4 72% 30.31 0.0
14 05:15 Calm 10.00 Partly Cloudy SCT100 53.6 44.6 72% 30.31 0.0
14 04:55 Calm 10.00 Partly Cloudy SCT120 55.4 44.6 67% 30.31 0.0
14 04:35 Calm 10.00 Fair CLR 53.6 44.6 72% 30.31 0.0
14 04:15 Calm 10.00 Partly Cloudy SCT120 53.6 44.6 72% 30.31 0.0
14 03:55 Calm 10.00 Mostly Cloudy BKN120 55.4 44.6 67% 30.31 0.0
14 03:35 SW 3 10.00 Fair CLR 51.8 44.6 77% 30.31 0.0
14 03:15 Calm 10.00 Fair CLR 55.4 44.6 67% 30.31 0.0
14 02:55 Calm 10.00 Fair CLR 55.4 44.6 67% 30.31 0.0
14 02:35 Calm 10.00 Fair CLR 53.6 44.6 72% 30.32 0.0
14 02:15 S 3 10.00 Fair CLR 55.4 44.6 67% 30.32 0.0
14 01:55 Calm 10.00 Fair CLR 55.4 44.6 67% 30.32 0.0
14 01:35 Calm 10.00 Fair CLR 55.4 44.6 67% 30.33 0.0
14 01:15 Calm 10.00 Fair CLR 55.4 44.6 67% 30.33 0.0
14 00:55 Calm 10.00 Fair CLR 59 44.6 59% 30.33 0.0
14 00:35 E 3 10.00 Fair CLR 57.2 42.8 59% 30.34 0.0
14 00:15 Calm 10.00 Fair CLR 62.6 46.4 56% 30.34 0.0
13 23:55 NW 6 10.00 Fair CLR 62.6 44.6 52% 30.33 0.0
13 23:35 Calm 10.00 Fair CLR 60.8 44.6 55% 30.33 0.0
13 23:15 S 3 10.00 Fair CLR 60.8 42.8 52% 30.33 0.0
13 22:55 Calm 10.00 Fair CLR 62.6 44.6 52% 30.33 0.0
13 22:35 E 3 10.00 Fair CLR 64.4 46.4 52% 30.33 0.0
13 22:15 Calm 10.00 Fair CLR 64.4 44.6 49% 30.33 0.0
13 21:55 Calm 10.00 Fair CLR 68 44.6 43% 30.33 0.0
13 21:35 S 6 10.00 Fair CLR 66.2 42.8 43% 30.32 0.0
13 21:15 Calm 10.00 Fair CLR 69.8 42.8 38% 30.31 0.0
13 20:55 W 6 10.00 Fair CLR 68 42.8 40% 30.31 0.0
13 20:35 Calm 10.00 Fair CLR 69.8 42.8 38% 30.3 0.0
13 20:15 Calm 10.00 Fair CLR 69.8 42.8 38% 30.31 0.0
13 19:48 Calm 10.00 Overcast SCT090 BKN110 OVC150 73.4 42.8 33% 30.33 0.0
13 18:48 SW 29 G 38 10.00 Overcast and Windy SCT090 BKN110 OVC150 71.6 42.8 36% 30.31 0.0
13 17:49 S 29 G 36 10.00 Mostly Cloudy and Windy SCT030 SCT043 SCT085 BKN120 75.2 44.6 34% 77 30.31 0.0
13 16:47 W 8 10.00 Overcast BKN140 OVC160 84.2 37.4 19% 81 30.27 0.0
13 15:47 W 9 10.00 Mostly Cloudy SCT140 BKN160 86 37.4 18% 83 30.26 0.0
13 14:46 SW 14 10.00 Mostly Cloudy BKN140 BKN160 86 39.2 19% 83 30.28 0.0
13 13:47 W 8 10.00 Partly Cloudy SCT070 SCT120 87.8 39.2 18% 84 30.27 0.0
13 12:47 W 8 10.00 Partly Cloudy SCT070 SCT110 87.8 39.2 18% 84 30.29 0.0
13 11:50 SW 8 10.00 Mostly Cloudy SCT100 BKN150 84.2 42.8 23% 82 30.29 0.0
13 10:47 Vrbl 3 10.00 Mostly Cloudy SCT BKN100 84.2 42.8 23% 82 30.31 0.0
13 09:50 N 6 10.00 Partly Cloudy OVC190 SCT220 75.2 46.4 36% 77 30.31 0.0
13 08:50 Vrbl 3 10.00 Partly Cloudy OVC190 SCT220 64.4 46.4 52% 30.32 0.0
13 07:50 NE 3 10.00 Partly Cloudy BKN125 SCT220 57.2 42.8 59% 30.28 0.0
13 06:50 Calm 10.00 Mostly Cloudy SCT180 BKN220 57.2 42.8 59% 30.28 0.0
13 06:35 Calm 10.00 Fair CLR 59 42.8 55% 30.27 0.0
13 06:15 Calm 10.00 Fair CLR 55.4 42.8 63% 30.27 0.0
13 05:55 SE 6 10.00 Fair CLR 53.6 41 63% 30.26 0.0
13 05:35 SE 3 10.00 Fair CLR 57.2 42.8 59% 30.26 0.0
13 05:15 E 5 10.00 Fair CLR 60.8 41 48% 30.26 0.0
13 04:55 SW 5 10.00 Fair CLR 59 42.8 55% 30.26 0.0
13 04:35 S 7 10.00 Partly Cloudy SCT120 59 42.8 55% 30.26 0.0
13 04:15 Calm 10.00 Partly Cloudy SCT120 62.6 42.8 49% 30.27 0.0
13 03:55 Calm 10.00 Partly Cloudy SCT110 62.6 42.8 49% 30.28 0.0
13 03:35 Calm 10.00 Partly Cloudy SCT090 SCT110 60.8 42.8 52% 30.27 0.0
13 03:15 S 5 10.00 Fair CLR 60.8 41 48% 30.27 0.0
13 02:55 NE 6 10.00 Fair CLR 62.6 41 45% 30.26 0.0
13 02:35 Calm 10.00 Fair CLR 62.6 41 45% 30.27 0.0
13 02:15 Calm 10.00 Fair CLR 60.8 39.2 45% 30.26 0.0
13 01:55 W 3 10.00 Fair CLR 62.6 41 45% 30.26 0.0
13 01:35 E 7 10.00 Fair CLR 60.8 41 48% 30.26 0.0
13 01:15 SW 7 10.00 Fair CLR 62.6 41 45% 30.28 0.0
13 00:55 N 6 10.00 Partly Cloudy SCT120 66.2 41 40% 30.26 0.0
13 00:35 Calm 10.00 Partly Cloudy SCT110 60.8 41 48% 30.28 0.0
13 00:15 Calm 10.00 Fair CLR 60.8 39.2 45% 30.28 0.0
12 23:55 Calm 10.00 Fair CLR 64.4 42.8 46% 30.28 0.0
12 23:35 S 3 10.00 Fair CLR 62.6 41 45% 30.27 0.0
12 23:15 Calm 10.00 Fair CLR 64.4 39.2 40% 30.26 0.0
Date Time (pdt) Wind (mph) Vis. (mi.) Weather Sky Cond. Air Dwpt Max. Min. Relative Humidity Wind Chill (°F) Heat Index (°F) altimeter (in) sea level (mb) 1 hr 3 hr 6 hr
6 hour
Temperature (ºF) Pressure Precipitation (in)